Theta_e
319 319 319 319 319 319 318 318 318 318 318 317 316 316 315 316 316 318 318 319 319 319 318 317 316 315 316 323 323 324 330 329 336 336 330 334 338 338 343 346 347 348 347 345 346 345 348
318 318 318 318 318 318 318 318 318 318 318 318 318 317 317 316 316 316 317 318 319 319 319 318 317 316 318 323 321 322 327 332 335 333 334 337 336 335 342 345 347 347 346 345 345 346 348
321 321 321 320 319 318 318 318 318 318 318 318 318 318 318 317 316 316 317 318 319 319 319 319 318 316 319 321 320 320 325 325 325 332 333 331 332 334 340 345 346 346 348 346 346 346 346
321 321 321 321 321 321 320 319 318 318 318 318 318 318 318 318 317 316 317 318 318 319 319 319 318 316 320 318 319 320 324 327 331 326 326 327 330 340 343 345 345 346 345 347 346 345 344
321 322 322 322 322 322 321 321 321 320 319 319 318 318 318 318 318 317 317 318 319 319 319 319 318 318 321 318 319 322 323 326 328 326 325 327 333 340 344 345 345 344 345 346 347 345 345
321 320 321 321 322 322 322 322 322 321 321 320 320 319 318 318 318 317 317 318 319 320 321 319 318 320 319 322 321 322 322 325 328 327 329 332 336 340 342 343 344 343 344 345 347 347 346
320 319 319 319 321 322 322 322 322 322 321 321 320 320 319 318 318 316 317 319 322 323 323 324 320 319 319 321 322 322 323 326 327 328 334 337 340 339 338 339 340 341 344 345 346 346 347
312 313 314 315 317 319 322 322 322 322 322 322 321 321 320 319 318 316 318 323 322 322 325 325 324 323 321 321 323 323 323 327 328 330 332 337 342 338 337 338 339 341 343 345 345 346 347
311 311 311 311 313 316 320 320 321 322 322 322 322 321 320 319 318 317 320 322 321 322 326 326 324 324 324 322 323 324 323 327 328 329 330 337 340 339 337 338 340 341 343 344 345 347 348
315 311 310 311 311 311 316 318 319 322 322 322 322 322 321 319 320 318 323 321 321 324 328 325 323 324 323 323 324 323 323 325 328 329 330 333 337 339 338 337 339 341 342 343 344 348 349
323 319 312 311 311 311 312 315 318 320 322 322 322 322 321 320 319 320 321 321 323 321 326 324 324 323 323 323 323 324 323 324 327 327 329 331 334 339 338 338 338 340 343 344 345 346 345
322 323 319 313 311 311 311 313 317 319 321 322 322 322 322 321 319 318 317 321 322 326 324 326 325 326 324 324 323 323 323 322 324 326 326 328 332 336 338 338 337 339 343 343 344 344 347
320 322 323 317 313 312 311 312 317 319 321 322 322 322 322 320 323 318 321 322 327 326 324 327 327 327 326 324 324 324 325 325 325 326 328 326 330 333 336 338 338 338 341 344 347 347 346
320 320 322 322 318 315 312 311 316 319 322 321 322 322 320 319 319 318 321 327 327 323 328 327 327 327 327 325 324 324 325 325 325 326 328 328 328 332 332 335 337 337 339 342 348 346 346
319 319 321 322 322 320 315 312 317 320 322 321 322 320 321 323 320 317 325 328 325 323 328 326 328 327 328 325 323 324 325 325 326 325 328 329 329 331 331 332 334 337 340 339 342 341 344
320 319 321 322 322 322 318 313 317 321 321 321 321 320 326 323 320 319 327 326 327 325 326 326 329 327 329 325 323 324 325 325 325 326 326 328 329 330 332 333 335 336 337 340 341 343 345
320 320 322 321 321 322 319 313 319 321 321 322 320 326 323 321 318 323 326 326 326 325 325 325 327 326 328 329 326 325 324 325 325 325 325 326 326 328 330 333 336 337 338 337 337 337 338
320 319 321 321 320 322 318 313 320 322 321 322 323 330 320 318 323 324 325 324 322 324 323 324 325 326 328 330 330 327 325 325 324 325 324 325 326 328 328 329 333 335 337 338 341 340 338
321 320 320 320 321 321 320 313 320 322 321 321 325 327 320 321 325 325 324 324 323 324 325 325 326 327 329 330 332 329 327 326 323 325 325 326 324 326 327 329 329 332 335 337 338 338 336
320 320 319 319 320 320 321 313 320 321 322 321 323 333 325 323 325 325 326 326 327 327 327 327 328 329 330 332 331 332 330 329 324 325 321 326 325 326 327 328 329 331 332 335 337 339 336
318 317 318 318 318 319 320 315 320 321 323 321 322 334 333 327 325 329 329 330 329 329 330 331 331 330 332 335 331 331 330 331 329 325 323 326 326 326 326 327 328 331 332 333 335 335 336
317 316 317 317 317 318 319 315 319 321 323 322 325 327 328 332 331 331 327 332 332 330 331 331 335 335 336 337 333 331 336 336 338 327 328 326 327 328 327 327 327 328 330 333 335 335 334
315 314 316 317 318 319 320 316 318 321 322 322 322 322 324 327 332 334 333 333 333 332 331 332 335 335 336 335 334 335 334 336 336 337 331 329 328 330 328 328 327 327 328 329 331 331 331
314 314 315 317 318 319 320 319 316 320 322 322 321 322 325 328 330 333 332 332 332 331 332 331 331 333 335 333 333 334 333 335 336 335 335 330 330 331 330 331 329 329 330 330 331 330 330
312 314 314 317 319 320 320 320 315 320 321 321 320 322 325 328 327 327 328 330 329 328 328 329 330 331 332 331 337 336 334 337 337 336 334 334 336 336 334 331 329 331 332 333 333 332 332
312 313 315 316 319 320 320 320 316 320 320 321 320 320 322 325 325 325 326 326 329 329 329 329 330 329 331 336 337 338 334 333 335 337 336 333 335 337 336 334 331 331 337 339 338 333 339
313 313 314 317 319 320 320 319 315 318 319 319 320 320 321 325 325 325 325 325 324 326 329 329 329 330 332 336 336 334 333 336 335 335 339 338 338 334 335 335 334 337 340 339 337 339 340
315 316 316 318 319 319 320 319 316 315 318 318 319 320 320 323 324 324 324 324 324 325 328 328 329 332 332 337 335 335 335 337 338 336 337 336 336 336 337 337 337 337 339 341 343 342 342
316 315 316 318 318 319 319 319 317 316 316 317 318 319 318 317 323 322 323 324 324 325 325 326 328 330 330 337 337 339 337 338 335 336 342 338 335 337 336 337 343 339 339 340 340 340 342
Wind_Speed
12 12 12 12 12 12 12 12 12 11 11 11 10 9 9 8 8 7 8 8 8 9 9 10 10 9 7 5 6 5 8 14 12 9 8 8 7 7 5 2 2 3 0 3 2 2 1
11 11 11 11 11 11 11 12 12 12 12 11 11 11 10 10 10 10 10 9 9 8 9 9 9 8 4 9 7 8 8 13 10 9 7 7 5 6 4 3 4 0 3 2 4 2 2
10 11 11 11 11 11 11 11 12 12 12 12 12 12 12 12 11 10 10 10 9 8 9 9 8 7 8 11 7 9 9 7 8 8 6 5 5 7 4 3 0 1 3 3 6 4 1
11 11 11 11 12 12 12 12 11 12 12 12 13 13 13 13 13 11 10 10 9 9 8 8 7 5 7 7 12 11 10 8 10 8 6 6 3 2 4 2 3 4 5 3 4 5 2
9 10 11 12 12 13 13 12 12 13 13 14 14 14 14 14 13 11 10 10 9 8 6 6 5 3 4 5 6 8 13 9 9 7 5 4 3 4 4 10 8 3 7 6 3 6 2
9 10 11 12 12 13 14 14 14 13 14 14 15 15 15 15 13 10 9 9 8 6 5 5 7 5 7 5 5 7 11 11 11 10 7 9 9 10 7 11 8 10 7 3 3 3 9
10 11 12 12 13 13 13 14 15 15 15 15 15 15 15 15 13 9 6 4 4 3 6 8 0 6 1 3 4 7 10 12 12 12 14 13 11 12 5 8 6 7 6 4 2 1 6
10 11 12 13 14 14 14 14 15 16 17 16 16 15 14 14 11 5 4 2 2 2 9 10 14 15 14 8 5 11 12 17 14 15 14 10 16 13 2 4 6 6 4 4 4 1 7
11 12 12 13 14 15 15 16 16 16 17 16 16 15 14 13 6 5 2 4 3 8 7 3 6 8 7 9 8 11 16 23 15 18 15 20 18 9 7 10 9 10 7 4 7 3 10
12 12 13 13 14 15 16 17 17 17 18 17 16 15 13 11 3 8 1 3 9 2 5 7 5 4 6 7 8 12 16 16 11 17 17 17 16 10 15 14 8 15 6 5 5 7 5
13 13 13 14 15 15 16 17 18 19 19 17 16 15 12 10 9 3 7 6 5 1 6 4 6 3 6 13 4 13 13 13 16 14 12 18 17 16 17 15 4 9 4 3 7 10 8
15 14 14 14 14 15 16 17 19 20 21 17 16 15 12 11 9 4 6 4 2 6 3 5 4 5 9 15 7 11 14 9 10 13 14 20 17 19 22 12 5 1 7 7 8 8 9
15 15 14 14 14 15 16 18 19 21 22 17 15 15 14 10 3 4 4 3 6 6 3 5 2 5 9 12 11 12 17 16 12 13 15 17 16 17 15 14 8 10 12 7 5 5 3
16 14 14 14 14 15 17 18 19 21 21 18 15 14 12 10 8 8 7 7 7 2 2 1 3 4 9 12 15 11 17 17 19 15 9 13 16 17 14 21 15 15 15 9 5 4 6
14 13 12 12 14 15 16 18 19 21 20 18 15 12 6 6 6 12 10 9 2 3 2 6 4 8 9 10 6 13 14 18 17 16 14 12 18 20 17 15 15 11 12 12 10 7 8
12 9 9 10 12 14 16 17 19 20 19 18 15 6 3 6 7 12 9 12 2 2 3 4 3 2 6 12 10 15 14 11 17 17 19 7 8 14 16 14 8 13 5 8 11 8 9
11 9 11 11 14 14 15 16 17 19 18 15 8 4 6 5 14 10 10 9 6 7 6 4 1 5 3 5 10 11 12 10 14 18 18 14 9 9 17 19 20 10 13 12 8 4 7
12 11 12 12 13 13 14 14 15 17 17 12 3 3 5 14 8 6 9 5 1 8 7 8 6 8 9 1 6 10 12 12 18 15 19 18 10 10 17 18 17 15 21 18 10 10 7
13 13 13 15 13 13 13 13 13 15 16 15 6 2 7 5 5 8 4 7 7 8 8 5 6 6 2 5 4 8 5 3 8 15 17 17 10 11 11 15 10 14 16 12 14 11 10
14 15 13 13 13 12 13 11 11 13 12 11 4 4 5 7 4 8 5 6 7 7 10 10 9 8 9 11 10 5 7 4 8 17 4 15 17 15 12 16 18 19 18 15 18 13 12
13 15 13 11 14 13 13 12 9 10 11 7 3 1 3 5 10 6 5 1 5 6 8 5 7 11 7 6 7 9 9 6 6 6 6 14 18 11 14 13 10 20 21 20 17 17 17
13 14 12 9 11 11 12 11 8 7 8 3 4 4 2 5 4 8 6 8 10 6 6 9 9 1 7 10 8 2 6 2 3 6 10 15 10 14 15 14 10 13 16 18 17 19 10
12 13 8 9 11 11 11 10 8 5 6 2 4 4 4 4 5 5 6 8 5 2 7 8 8 9 9 3 8 15 15 14 9 6 7 13 10 8 14 10 12 15 16 14 13 13 13
10 10 8 10 10 10 10 9 9 5 4 2 4 3 4 5 5 6 5 5 7 4 8 9 10 9 4 15 20 13 12 11 8 7 9 6 11 8 6 7 12 8 12 11 8 10 14
9 9 9 9 10 10 10 10 10 7 5 3 4 2 4 7 5 7 10 10 9 10 11 12 12 11 12 17 8 7 8 6 7 4 7 7 6 4 6 11 6 9 7 8 11 10 7
8 7 8 10 10 9 10 11 10 8 8 5 5 5 4 7 2 5 8 6 8 6 8 12 8 8 7 7 6 8 9 10 8 8 4 6 7 8 5 11 11 12 11 4 3 10 4
4 7 9 10 10 9 10 11 11 9 8 6 5 4 3 8 11 7 5 5 2 5 6 5 5 5 5 7 9 7 9 1 5 10 7 8 7 11 9 9 8 8 6 4 9 3 5
8 8 10 10 11 10 11 12 12 11 9 7 6 6 4 8 15 12 8 9 9 8 7 5 6 5 7 6 7 4 8 4 5 3 3 6 6 7 3 5 11 7 6 6 5 4 9
10 11 10 10 11 11 11 14 13 14 12 9 8 6 8 10 11 12 13 15 19 16 9 6 5 4 4 5 2 3 5 3 9 8 5 8 5 7 4 4 6 4 8 6 8 9 9
Wind_Direction
40 38 38 34 34 31 28 25 23 17 13 7 1 353 344 336 325 319 312 310 304 301 297 293 292 293 304 264 243 206 144 157 180 212 234 249 272 286 309 3 194 267 139 227 176 338 197
31 30 27 26 26 21 19 18 14 10 6 3 357 351 344 336 330 323 312 308 305 303 297 294 292 287 287 250 221 188 154 153 178 207 234 235 293 320 314 20 307 348 285 264 230 265 184
23 20 20 18 14 12 10 7 5 2 359 356 352 348 344 338 330 323 309 302 299 297 294 292 292 283 261 237 212 195 184 178 201 217 239 257 283 286 330 178 243 149 243 195 194 214 117
17 13 12 11 8 4 0 358 357 354 350 349 347 346 343 337 332 322 309 297 292 289 289 288 285 285 255 246 217 199 209 203 197 219 246 270 255 283 289 156 205 259 223 322 125 229 143
20 16 10 5 2 0 357 355 349 347 343 343 344 344 343 337 334 324 304 296 294 290 279 274 289 247 250 239 209 203 200 204 197 209 226 238 217 274 213 248 208 195 2 14 133 208 238
8 8 8 3 359 354 355 354 350 343 339 337 338 340 342 339 336 326 303 298 299 290 258 258 243 251 235 181 204 202 200 191 195 193 189 220 233 238 221 249 15 346 332 49 9 165 231
350 351 353 355 354 353 350 351 349 344 337 335 334 335 340 338 336 325 315 315 283 224 226 246 296 265 211 287 241 200 194 187 200 212 216 205 233 230 251 21 344 317 320 337 78 151 259
340 342 343 345 348 348 347 347 345 342 337 332 332 332 340 337 332 320 340 323 57 329 292 253 246 250 260 276 261 204 182 194 202 215 214 204 227 243 51 313 306 306 307 55 129 249 254
324 329 332 336 338 342 342 342 341 338 336 330 330 329 337 339 333 332 309 178 314 336 262 217 225 241 226 208 227 203 194 208 209 218 210 228 217 225 243 257 275 285 313 350 349 286 246
307 314 319 325 331 334 337 339 339 336 334 328 326 325 334 344 6 337 162 237 328 310 264 133 176 162 187 195 232 208 200 199 211 222 219 236 235 220 229 254 289 291 17 278 284 290 342
297 299 305 313 320 327 330 332 334 335 334 326 322 321 326 330 313 317 237 278 325 285 238 106 131 169 187 203 104 185 189 209 216 209 220 219 226 216 238 241 345 324 331 317 300 281 280
290 291 295 301 310 319 324 327 330 334 331 324 321 315 315 316 317 254 229 273 196 230 197 137 133 181 177 204 190 150 182 208 235 227 215 249 213 229 238 226 237 321 240 236 245 255 248
295 289 284 291 301 312 318 324 328 332 330 323 319 309 303 299 245 251 190 195 229 248 133 135 146 188 213 186 199 194 190 197 197 204 213 217 220 221 243 232 196 239 256 261 247 223 57
300 289 285 286 293 304 314 320 326 332 329 324 320 309 296 279 250 218 204 226 244 54 254 117 262 235 218 194 213 197 200 208 218 230 215 205 210 214 202 232 229 220 257 274 242 310 347
306 296 290 289 297 298 308 318 324 332 332 327 326 321 301 264 218 186 206 223 252 209 17 343 242 214 187 192 239 201 213 217 205 219 234 212 229 183 212 211 230 201 235 266 298 236 253
306 302 300 304 309 303 304 316 324 332 333 332 331 321 243 268 197 176 224 246 218 243 314 306 278 289 214 179 204 199 198 215 227 206 238 198 245 198 207 228 211 265 3 216 219 268 270
302 296 296 300 302 305 303 313 323 332 336 335 333 262 309 167 153 198 225 227 241 221 272 303 263 302 238 214 228 205 215 212 216 199 219 237 234 190 207 209 214 191 231 243 312 309 303
296 286 287 295 300 307 304 312 323 335 341 346 324 231 176 149 202 210 233 234 281 249 221 267 284 275 265 211 235 225 228 230 204 209 206 221 221 229 210 226 227 249 219 232 225 222 234
289 281 279 285 290 297 309 311 321 338 350 353 309 283 187 187 226 207 185 237 252 245 237 240 257 238 321 281 260 225 210 246 202 201 211 201 224 223 226 184 205 232 231 253 257 261 281
287 289 274 281 287 289 299 304 312 332 346 346 297 210 170 211 265 279 208 216 236 208 264 253 269 276 268 264 232 249 219 149 191 222 277 205 230 225 223 225 211 213 228 225 242 243 244
280 294 290 271 279 285 291 296 303 328 337 343 258 97 317 190 209 230 235 258 237 245 212 237 236 246 277 277 231 219 230 173 170 181 216 224 226 229 238 252 247 213 221 221 233 251 266
265 278 277 275 282 277 284 284 293 325 338 2 301 317 266 283 243 234 194 239 257 243 236 215 243 348 281 256 293 323 348 248 93 165 200 225 240 232 230 228 232 247 240 241 217 250 274
261 280 268 278 278 268 279 277 279 311 345 326 313 306 292 152 215 237 215 240 266 314 245 270 301 308 273 351 310 299 286 282 284 295 196 211 222 211 230 205 225 231 236 214 222 224 248
271 267 266 271 277 261 264 272 272 285 317 290 298 304 271 242 234 227 261 257 256 268 284 292 289 287 8 312 299 264 249 242 240 230 255 195 217 230 237 176 218 224 188 216 238 280 280
282 257 253 268 276 258 248 261 261 269 283 283 279 287 280 269 289 254 243 256 267 263 259 277 279 278 299 300 263 205 193 194 194 217 226 252 215 179 219 217 225 168 163 196 215 274 298
283 254 260 264 277 261 242 257 244 258 276 286 266 247 268 294 243 288 270 261 276 270 265 248 273 293 292 272 251 231 207 209 182 175 226 229 252 266 179 268 228 232 134 159 258 255 113
308 282 274 279 273 263 239 253 235 240 276 278 266 230 243 264 266 260 256 298 289 264 272 281 326 293 242 252 249 224 230 273 220 206 167 199 237 235 219 243 255 101 130 153 228 349 19
287 281 268 274 271 268 246 237 234 233 252 269 255 255 240 266 271 265 256 257 250 249 270 30 274 197 253 246 253 206 265 152 246 285 243 232 243 223 239 266 249 118 133 247 23 354 354
297 279 274 271 273 265 251 224 234 235 236 248 264 285 261 245 258 282 258 251 242 244 280 250 319 329 348 276 248 322 226 230 256 232 164 245 278 305 288 350 66 176 298 328 331 331 342